Regional Weather Roundup
Issued by NWS

Home | Current Version | Previous Version | Graphics & Text | Print | Product List | Glossary On
Versions: 1 2 3 4 5 6 7 8 9 10 11 12 13 14 15 16 17 18 19 20 21 22 23 24 25 26 27 28 29 30 31 32 33 34 35 36 37 38 39 40 41 42 43 44 45 46 47 48 49 50
000
ASUS43 KFSD 240002
RWRSD

WEATHER ROUNDUP FOR SOUTH DAKOTA
NATIONAL WEATHER SERVICE SIOUX FALLS SD
700 PM CDT SAT SEP 23 2017

NOTE: "FAIR" INDICATES FEW OR NO CLOUDS BELOW 12,000 FEET WITH NO
SIGNIFICANT WEATHER AND/OR OBSTRUCTIONS TO VISIBILITY.


SDZ001>005-009-010-012>017-240100-
NORTHWEST AND NORTH CENTRAL SOUTH DAKOTA

CITY           SKY/WX    TMP DP  RH WIND       PRES   REMARKS
BUFFALO          N/A     45  44  97 NE8       30.02R
FAITH            N/A     47  47 100 N9        30.02S
MOBRIDGE       RAIN      53  51  93 SE7       30.00R FOG
$$

SDZ012>016-024>037-041>051-057-063-072>074-240100-
SOUTHWEST AND SOUTH CENTRAL SOUTH DAKOTA

CITY           SKY/WX    TMP DP  RH WIND       PRES   REMARKS
RAPID CTY ARPT CLOUDY    46  45  93 N12       30.03R
PIERRE         CLOUDY    51  49  92 E18       29.91F
CUSTER         CLOUDY    40  38  93 N6        30.02R
PHILIP         CLOUDY    50  50 100 N12       29.98R
PINE RIDGE     CLOUDY    47  46  97 N7        30.01R
SPEARFISH      FAIR      43  43 100 NE6       30.05S
WINNER         CLOUDY    54  52  93 NW3       29.97R
$$

SDZ004>011-016>023-039-040-240100-
NORTHEAST SOUTH DAKOTA

CITY           SKY/WX    TMP DP  RH WIND       PRES   REMARKS
ABERDEEN       RAIN      53  53 100 N7        30.01R FOG
WATERTOWN      CLOUDY    53  53 100 NE12      29.94S
BROOKINGS      TSTM      59  58  96 E20       29.91F
SISSETON         N/A     56  55  97 N9        29.99R
$$

SDZ017-020-022-023-036>040-048>070-240100-
SOUTHEAST SOUTH DAKOTA

CITY           SKY/WX    TMP DP  RH WIND       PRES   REMARKS
SIOUX FALLS    LGT RAIN  67  65  93 E13       29.87F
HURON          HVY RAIN  54  54 100 NE14      29.93R VSB 3/4
CHAMBERLAIN    LGT RAIN  54  54 100 E3        29.96R
MITCHELL       CLOUDY    57  55  93 NW17G26   29.94R
YANKTON        CLOUDY    70  68  93 N9        29.86S
$$

ABBREVIATIONS USED IN REMARKS
   TC - TEMPERATURE IN CELSIUS
  WCI - WIND CHILL INDEX
   HX - HEAT INDEX
  VSB - VISIBILITY





USA.gov is the U.S. government's official web portal to all federal, state and local government web resources and services.